User: anonymous   Login
Location: *
(46.1866°S, 178.5290°W)
Time: 14:46:42
(UTC+00:00)
Language:

NOSS 3-1 (C) - Orbit

View from above orbital plane
View from above orbital plane
View from above satellite
View from above satellite

Ground track
Ground track

The orbit data is extracted from the following two-line orbital elements,

1 26907U 01040C   21201.95253333 0.00000000  00000-0  00000-0 0    01
2 26907  63.4042 163.2042 0508554   2.4092 357.5908 13.41334224    01
Epoch (UTC): 20 July 2021 22:51:38
Eccentricity: 0.0508554
inclination: 63.4042°
perigee height: 724 km
apogee height: 1485 km
right ascension of ascending node: 163.2042°
argument of perigee: 2.4092°
revolutions per day: 13.41334224
mean anomaly at epoch: 357.5908°
orbit number at epoch: 0

The dashed part of the orbit path shows where the satellite is in the earth's shadow,  

DLR